[[{"header":{"parameterUnit":"m.s-1","parameterCategory":1,"la1":30.2991,"la2":30.254,"lo1":-89.0895,"lo2":-89.0444,"dy":0.0017,"dx":0.0017,"nx":28,"ny":28,"refTime":"2024-07-13T09:00:00:Z","depth":0,"parameterNumber":2,"parameterNumberName":"U-component_of_WINDS"},"data":[0,0,0,0,0,0,0,0,0,0,0,0,0,0,0,0,0,0,0,0,0,0,0,0,0,0,0,0,0,0,0,0,0,0,0,0,0,0,0,0,0,0,0,0,0,0,0,0,0,0,0,0,0,0,0,0,0,0,3.3775,3.3776,0,3.387,3.3871,3.3872,3.3837,3.3835,3.3832,3.383,3.393,3.3934,3.3939,0,0,0,0,0,0,0,0,0,0,0,0,0,3.3564,3.3568,3.3775,3.3776,3.3778,3.387,3.3871,3.3873,3.3837,3.3835,3.3832,3.3829,3.3928,3.3934,3.3939,0,0,0,0,0,0,0,0,0,0,0,0,0,3.3657,3.3569,3.3775,3.3771,3.3772,3.387,3.3871,3.3873,3.3838,3.3834,3.3831,3.3828,3.3927,3.3933,3.394,3.4049,0,0,3.3962,3.3965,0,0,0,0,0,0,0,0,3.3652,3.3665,3.377,3.3771,3.3772,3.3838,3.3833,3.3932,3.3839,3.3813,3.383,3.3827,3.3902,3.3911,3.3936,3.4053,3.4058,3.3962,3.3967,3.397,3.3972,0,0,0,0,0,0,0,3.3645,3.366,3.3813,3.3772,3.3773,3.3765,3.3774,3.3852,3.3875,3.3815,3.3812,3.3824,3.3902,3.3929,3.3938,3.4059,3.3962,3.3968,3.3973,3.3975,3.4267,3.4271,0,0,0,0,0,0,3.3638,3.3655,3.381,3.3816,3.3703,3.3771,3.3782,3.382,3.3874,3.3879,3.3827,3.3822,3.3919,3.393,3.3941,3.4069,3.397,3.3976,3.398,3.4264,3.4268,3.4272,0,0,0,0,0,0,3.3634,3.3652,3.3806,3.3735,3.3754,3.3778,3.3822,3.3824,3.3851,3.3883,3.3887,3.385,3.3917,3.3932,3.4021,3.4072,3.3979,3.3986,3.426,3.4265,3.427,3.4327,0,0,0,0,0,0,3.3628,3.3651,3.3693,3.3736,3.3758,3.3884,3.3825,3.3828,3.3863,3.3858,3.3906,3.3911,3.3915,3.4011,3.4028,3.408,3.3991,3.4255,3.4262,3.4268,3.4321,3.4334,3.4345,0,0,0,0,0,3.3621,3.3706,3.3695,3.3714,3.381,3.3887,3.39,3.3903,3.3867,3.3909,3.3929,3.3909,3.4065,3.4021,3.404,3.4095,3.4252,3.426,3.4268,3.4316,3.4331,3.4345,0,0,0,0,0,0,3.3669,3.3712,3.37,3.3802,3.3841,3.3881,3.3934,3.392,3.3971,3.3964,3.3966,3.3977,3.4069,3.4091,3.4042,3.4201,3.4153,3.4165,3.4183,3.4198,3.421,3.4202,3.3997,0,0,0,0,0,3.3691,3.375,3.3785,3.3872,3.3892,3.3909,3.3943,3.3942,3.3983,3.4,3.4026,3.4068,3.4125,3.4163,3.4219,3.4325,3.4333,3.4372,3.4384,3.4394,3.4403,3.4459,3.4475,3.4298,3.4298,3.4298,0,0,3.3739,3.3769,3.3807,3.3882,3.3912,3.3973,3.3924,3.3991,3.4035,3.401,3.4095,3.4117,3.4163,3.426,3.4305,3.4282,3.4454,3.4404,3.4411,3.4416,3.4468,3.4485,3.45,3.4304,3.4303,3.4302,0,0,3.3855,3.3885,3.3959,3.399,3.4035,3.4046,3.4064,3.4106,3.4119,3.4204,3.4186,3.424,3.434,3.4372,3.4402,3.4529,3.4512,3.4547,3.4609,3.4663,3.4677,3.4689,3.4732,3.4747,3.4557,3.4558,3.4558,0,3.3907,3.3997,3.3999,3.4066,3.4099,3.4078,3.4152,3.4183,3.4245,3.4268,3.4241,3.4364,3.4394,3.4498,3.4528,3.4554,3.4573,3.4541,3.4675,3.4687,3.4699,3.4739,3.4755,3.4561,3.4561,3.4561,3.456,0,3.4058,3.4121,3.4176,3.4234,3.4273,3.4344,3.4356,3.4396,3.4391,3.4405,3.4491,3.4526,3.4586,3.4612,3.4609,3.4714,3.4698,3.4674,3.4625,3.4719,3.4757,3.4773,3.4567,3.4565,3.4564,3.4563,0,0,3.4207,3.4264,3.4284,3.4309,3.4357,3.4406,3.4476,3.4533,3.4566,3.461,3.4667,3.4751,3.4728,3.4761,3.4762,3.481,3.4904,3.4779,3.478,3.4798,3.502,3.5036,3.5054,3.4894,3.4897,3.49,3.5015,0,3.4325,3.4445,3.4448,3.4558,3.4614,3.4595,3.4655,3.4691,3.4706,3.4756,3.4773,3.4831,3.4798,3.4817,3.4864,3.4883,3.4948,3.4875,3.4946,3.4948,3.4932,3.5074,3.5092,3.5199,3.503,3.5033,3.5034,0,3.4478,3.4524,3.4639,3.4677,3.4701,3.4755,3.4807,3.4856,3.4896,3.4903,3.494,3.4933,3.5003,3.4954,3.5049,3.4999,3.5029,3.5043,3.5047,3.5051,3.4995,3.508,3.5234,3.5249,3.5058,3.5057,3.5055,0,3.4571,3.4662,3.4742,3.4765,3.4812,3.485,3.4871,3.4908,3.4942,3.4988,3.501,3.5064,3.5093,3.5135,3.5143,3.5107,3.5238,3.519,3.5245,3.5244,3.5271,3.5269,3.5429,3.5295,3.5295,3.5295,3.5294,0,3.47,3.4771,3.4784,3.4833,3.4911,3.4914,3.4991,3.501,3.5043,3.5094,3.5083,3.5132,3.514,3.5191,3.5198,3.5274,3.5289,3.5295,3.5296,3.5295,3.5294,3.5312,3.5304,3.5299,3.5298,3.5297,3.5297,0,3.4817,3.4829,3.4914,3.4951,3.4962,3.5017,3.5049,3.5095,3.5108,3.5174,3.519,3.521,3.5269,3.5281,3.5353,3.5357,3.5447,3.5442,3.5433,3.5431,3.5484,3.5478,3.566,3.5682,3.5536,3.5538,3.5539,0,3.4897,3.4951,3.4993,3.5026,3.5048,3.5103,3.5136,3.5141,3.5177,3.5225,3.5266,3.5323,3.5369,3.5464,3.5486,3.5539,3.5533,3.5593,3.5541,3.5538,3.5531,3.5526,3.553,3.5602,3.5604,3.5605,3.5606,0,3.5038,3.504,3.5089,3.5139,3.518,3.522,3.5258,3.5286,3.5296,3.5337,3.5396,3.5431,3.5502,3.5559,3.5612,3.5634,3.5622,3.5623,3.5638,3.5636,3.5627,3.5629,3.5457,3.5618,3.5617,3.5616,3.5615,3.5615,3.5137,3.5182,3.5218,3.5272,3.5301,3.5336,3.538,3.5398,3.5447,3.5504,3.5505,3.5569,3.5606,3.5676,3.5701,3.5751,3.5733,3.5755,3.576,3.5765,3.5768,3.5621,3.5762,3.5761,3.5761,3.5761,3.5761,0,3.5274,3.5295,3.5345,3.5398,3.544,3.5424,3.5465,3.5501,3.5557,3.5593,3.5637,3.5704,3.5759,3.5784,3.5838,3.5873,3.5868,3.5887,3.5883,3.5887,3.5784,3.5764,3.5889,3.5889,3.5889,3.5889,3.5889,3.5889,3.535,3.5425,3.5431,3.552,3.5542,3.5603,3.5627,3.566,3.5687,3.5762,3.5807,3.5822,3.5853,3.5909,3.5958,3.5964,3.5983,3.6003,3.6006,3.5908,3.5895,3.5883,3.5864,3.6008,3.6008,3.6105,3.6106,3.6107]},{"header":{"parameterUnit":"m.s-1","parameterCategory":1,"la1":30.2991,"la2":30.254,"lo1":-89.0895,"lo2":-89.0444,"dy":0.0017,"dx":0.0017,"nx":28,"ny":28,"refTime":"2024-07-13T09:00:00:Z","depth":0,"parameterNumber":3,"parameterNumberName":"V-component_of_WINDS"},"data":[0,0,0,0,0,0,0,0,0,0,0,0,0,0,0,0,0,0,0,0,0,0,0,0,0,0,0,0,0,0,0,0,0,0,0,0,0,0,0,0,0,0,0,0,0,0,0,0,0,0,0,0,0,0,0,0,0,0,1.8492,1.8493,0,1.8584,1.8585,1.8586,1.8607,1.8607,1.8606,1.8605,1.87,1.8703,1.8707,0,0,0,0,0,0,0,0,0,0,0,0,0,1.8332,1.8335,1.8492,1.8493,1.8494,1.8584,1.8585,1.8587,1.8607,1.8607,1.8606,1.8605,1.8699,1.8703,1.8707,0,0,0,0,0,0,0,0,0,0,0,0,0,1.8411,1.8336,1.8491,1.8515,1.8518,1.8584,1.8585,1.8587,1.8608,1.8607,1.8606,1.8605,1.8698,1.8703,1.8707,1.8756,0,0,1.8722,1.8724,0,0,0,0,0,0,0,0,1.8406,1.8416,1.8511,1.8514,1.8517,1.8583,1.8564,1.8644,1.8608,1.8574,1.8605,1.8604,1.8662,1.867,1.8689,1.8761,1.8765,1.8722,1.8725,1.8727,1.8728,0,0,0,0,0,0,0,1.8401,1.8413,1.8528,1.8512,1.8516,1.8521,1.8531,1.8579,1.8622,1.8577,1.8578,1.8589,1.8664,1.8685,1.8692,1.8766,1.8722,1.8726,1.8729,1.8731,1.888,1.8881,0,0,0,0,0,0,1.8391,1.8408,1.8525,1.8531,1.8458,1.8525,1.8536,1.8563,1.8622,1.863,1.859,1.859,1.8677,1.8686,1.8695,1.8755,1.8727,1.8731,1.8734,1.8879,1.888,1.8881,0,0,0,0,0,0,1.8388,1.8401,1.8522,1.847,1.8486,1.8528,1.8559,1.8565,1.8586,1.8632,1.864,1.8603,1.8677,1.8689,1.874,1.8758,1.8734,1.8738,1.8877,1.8879,1.8881,1.8875,0,0,0,0,0,0,1.8383,1.84,1.8419,1.847,1.8488,1.8566,1.856,1.8568,1.8594,1.8595,1.8646,1.8654,1.8677,1.8733,1.8745,1.8765,1.8742,1.8876,1.8878,1.888,1.8874,1.8877,1.8879,0,0,0,0,0,1.8377,1.8415,1.842,1.8434,1.8513,1.8567,1.8577,1.8602,1.8596,1.8615,1.8644,1.8652,1.8754,1.8738,1.8752,1.8773,1.8875,1.8877,1.888,1.8873,1.8876,1.8879,0,0,0,0,0,0,1.8366,1.8422,1.8429,1.8484,1.852,1.857,1.8596,1.8605,1.8645,1.8644,1.8673,1.8685,1.8734,1.8759,1.874,1.8822,1.8814,1.882,1.8804,1.8808,1.881,1.8803,1.8745,0,0,0,0,0,1.8369,1.8408,1.8455,1.8499,1.8517,1.8553,1.8577,1.8593,1.8632,1.8648,1.8681,1.8718,1.8758,1.8785,1.8824,1.8877,1.8888,1.8899,1.8901,1.8903,1.8907,1.8935,1.894,1.8889,1.8889,1.8889,0,0,1.8378,1.8413,1.8436,1.8497,1.8528,1.8566,1.8566,1.8607,1.8636,1.8654,1.8705,1.873,1.8774,1.8826,1.885,1.8848,1.8923,1.8906,1.8907,1.891,1.8938,1.8943,1.8947,1.8891,1.8891,1.8891,0,0,1.8412,1.8444,1.8483,1.8513,1.8558,1.8581,1.8591,1.8639,1.8656,1.8707,1.8721,1.8755,1.8825,1.8855,1.8879,1.8923,1.8932,1.8935,1.8947,1.8975,1.8978,1.8982,1.8997,1.9002,1.8939,1.8939,1.8939,0,1.8417,1.8476,1.8502,1.8542,1.8569,1.8586,1.8625,1.8653,1.8709,1.8726,1.8723,1.8809,1.8839,1.8898,1.8908,1.8928,1.8939,1.8929,1.8976,1.898,1.8984,1.8998,1.9003,1.8939,1.8939,1.8939,1.8939,0,1.8479,1.852,1.8546,1.8599,1.8628,1.8668,1.8699,1.8725,1.8738,1.8762,1.8813,1.885,1.8897,1.8912,1.8926,1.8972,1.8969,1.897,1.8963,1.8988,1.9002,1.9007,1.8939,1.8939,1.8939,1.8939,0,0,1.851,1.8575,1.8585,1.8608,1.8658,1.869,1.873,1.8775,1.8796,1.8834,1.8868,1.8925,1.8926,1.8953,1.897,1.8994,1.9025,1.8992,1.8994,1.8996,1.9077,1.9075,1.9081,1.9031,1.9032,1.9033,1.9073,0,1.8551,1.8622,1.8646,1.8705,1.8742,1.8758,1.8793,1.8827,1.885,1.8884,1.8909,1.8949,1.8948,1.8964,1.8988,1.9016,1.9041,1.9013,1.9062,1.9063,1.905,1.9088,1.9087,1.9123,1.9078,1.9079,1.908,0,1.8608,1.8645,1.8708,1.8752,1.8768,1.8799,1.8841,1.8874,1.8913,1.8928,1.8957,1.8972,1.9013,1.9003,1.906,1.904,1.9061,1.9077,1.9079,1.9085,1.9073,1.9094,1.9135,1.914,1.9089,1.9088,1.9088,0,1.8623,1.8689,1.8735,1.8754,1.8807,1.8828,1.8851,1.8888,1.8913,1.895,1.8967,1.9008,1.9031,1.9062,1.9087,1.9078,1.9141,1.9133,1.9154,1.9153,1.9166,1.9165,1.9211,1.9181,1.918,1.918,1.918,0,1.8665,1.8703,1.8742,1.877,1.8812,1.8838,1.8879,1.8903,1.8936,1.8968,1.8985,1.9015,1.9046,1.908,1.91,1.9143,1.9154,1.9166,1.9171,1.9164,1.9163,1.9178,1.9176,1.9182,1.9182,1.9181,1.9181,0,1.8689,1.8717,1.8768,1.8813,1.8825,1.8854,1.8892,1.892,1.8942,1.8983,1.8994,1.903,1.907,1.9098,1.9151,1.9164,1.921,1.9215,1.9197,1.9199,1.9218,1.9215,1.9275,1.9284,1.9248,1.9248,1.9248,0,1.8714,1.8743,1.8791,1.8813,1.8836,1.8873,1.8898,1.8924,1.895,1.8995,1.9017,1.9058,1.9093,1.9157,1.9187,1.9227,1.9232,1.925,1.9238,1.923,1.9231,1.9229,1.9232,1.9252,1.9252,1.9253,1.9253,0,1.8755,1.8767,1.8802,1.8843,1.8872,1.8905,1.8938,1.8956,1.8988,1.9016,1.9057,1.9084,1.9137,1.9177,1.9219,1.9243,1.9253,1.9256,1.9263,1.9256,1.9244,1.925,1.9202,1.9255,1.9255,1.9254,1.9254,1.9254,1.878,1.8806,1.8843,1.8882,1.8909,1.8939,1.8967,1.8992,1.9027,1.9072,1.9085,1.9128,1.9164,1.9222,1.9245,1.9278,1.9277,1.9287,1.9289,1.9291,1.929,1.9239,1.9286,1.9286,1.9286,1.9286,1.9286,0,1.882,1.8845,1.888,1.8925,1.8956,1.8962,1.8999,1.9023,1.9061,1.9094,1.9127,1.9173,1.9213,1.9245,1.9285,1.9306,1.9311,1.9315,1.9314,1.9319,1.929,1.928,1.931,1.931,1.931,1.931,1.931,1.931,1.8845,1.8889,1.8905,1.8962,1.8986,1.9028,1.9048,1.9075,1.9102,1.9153,1.9185,1.9206,1.9239,1.9281,1.9317,1.9325,1.9339,1.9342,1.9351,1.9324,1.9321,1.9318,1.9309,1.9345,1.9345,1.9377,1.9377,1.9377]}]]